Weather in Kapitonovka

Russia / Khabarovsk Krai     47°40′08″N   135°03′55″E
temp.,
°C
wind,
m/s
gust,
m/s
humid.,
%
clouds,
%
prec.,
mm/h
press.,
hPa
HPBL,
m
4 august, wed
wed401:00+22se229492 1.4 100740
04:00+21sse3495100 1.5 100672
07:00+22se3695100 0.6 1005157
10:00+26sw4784100 3.5 1004725
13:00+27sw4680100 3.1 1003845
16:00+30ssw465371 4.6 10011165
19:00+28nne556061 0.1 1001487
22:00+20e229692 2.9 100345
5 august, thu
thu501:00+20se119684 1.1 100320
04:00+19ne2297100 1.1 100340
07:00+18ene2399100 0.1 1005101
10:00+23ene228422 0.1 1004279
13:00+28s1263100 0.9 10031188
16:00+30se2351100 2.2 10021600
19:00+27ne347173 1.3 1001206
22:00+22ese3491100 1.9 100165
6 august, fri
fri601:00+21ene339394 0.2 100148
04:00+21ssw1196100 1.8 100113
07:00+20sse2397100 1.4 100292
10:00+23s1290100 2.0 1002234
13:00+23w2490100 1.4 1002232
16:00+22se2395100 3.6 1003127
19:00+21ese349478 0.1 1003101
22:00+20ese239497 0.1 100344
7 august, sat
sat701:00+19ene2295100 0.0 100437
04:00+19ene3597100 0.0 1003112
07:00+18ene4797100 0.0 1004214
10:00+22ne4585100 0.0 1005441
13:00+25ne5469100 0.0 1005825
16:00+21ene3790100 1.9 1005168
19:00+19ne5999100 9.7 1006410
22:00+17nne51098100 12.9 1008429
8 august, sun
sun801:00+15nne51098100 0.0 1008463
04:00+15nne4998100 0.1 1009410
07:00+14nne4998100 0.3 1010356
10:00+15ne5996100 0.3 1011359
13:00+16ne5689100 0.0 1012431
16:00+16nne5786100 0.0 1012391
19:00+15nne71286100 0.0 1013355
22:00+14ne5990100 0.1 1014318